www.pogodaiklimat.ru

Погода и климат >> Архив погоды >> Таиланд >> Бангкок Пилот


ПОГОДА в Бангкок Пилот

  • Прогноз погоды в Бангкок Пилот
  • Монитор погоды в Бангкок Пилот

АРХИВ ПОГОДЫ в Бангкок Пилот

Время (UTC), дата Ветер
(напр.,м/с)
 
Видим.   Явления Облачность Т
(С)
Тd
(С)
f
(%)
Тe
(С)
Тes
(С)
Комфортность P
(гПа)
Po
(гПа)
Тmin
(С)
Tmax
(С)
R
(мм)
R24
(мм)
S
(см)
06 11.06 ЮЗ 12 8000 м слаб. дождь 10/6 600 м
[Cu Sc Ac As]
+27.5 +26.1 92 +41 +41 опасность
перегрева
1006.9 1005.2 0.0
09 11.06 ЮЗ 10 12 км {дождь} 10/4 600 м
[Sc Ac As]
+28.9 +27.1 90 +46 +46 опасность
перегрева
1004.7 1003.1 0.0
12 11.06 ЮЗ 10 12 км {дождь} 10/3 600 м
[Sc Ac As]
+29.8 +27.2 86 +47 +47 опасность
перегрева
1006.2 1004.5 +30.8 0.0
00 12.06 ЮЗ 14 12 км 8/1 600 м
[Cu hum Ac lent Cs]
+30.1 +27.9 88 +50 +50 опасность
перегрева
1007.3 1005.6 +29.0
03 12.06 ЮЗ 14 12 км 8/0
[Ac lent Cs]
+30.7 +27.7 84 +50 +50 опасность
перегрева
1008.8 1007.2
06 12.06 Ю 2 12 км 3/3 600 м
[Cu med, cong]
+30.0 +27.2 85 +48 +62 опасность
перегрева
1007.5 1005.9
09 12.06 Ю 17 10 км 8/4 600 м
[Cu med, cong Ac lent Cs]
+31.1 +28.2 85 +52 +52 опасность
перегрева
1005.5 1003.9
12 12.06 ЮЗ 15 10 км 9/1 600 м
[Cu hum Ac As Cs]
+31.2 +28.9 88 +54 +54 опасность
перегрева
1005.6 1003.9 +31.4
00 13.06 ЮЗ 17 10 км 8/1 600 м
[Cu hum Ac und Cs]
+30.4 +28.5 90 +52 +52 опасность
перегрева
1006.9 1005.2 +29.0
03 13.06 Ю 13 10 км 6/1 600 м
[Cu hum Cs]
+30.7 +28.0 86 +51 +51 опасность
перегрева
1008.1 1006.4
06 13.06 Ю 14 10 км 6/1 600 м
[Cu hum Ac trans Cs]
+31.5 +28.8 86 +54 +54 опасность
перегрева
1007.0 1005.3
09 13.06 Ю 15 10 км 8/3 600 м
[Cu med, cong Ac As Cs]
+31.0 +29.2 90 +54 +54 опасность
перегрева
1005.1 1003.4
12 13.06 Ю 15 10 км осадки на расстоянии 9/3 600 м
[Sc Ac As Cs]
+31.0 +29.2 90 +54 +54 опасность
перегрева
1005.7 1004.1 +31.6
00 14.06 Ю 11 10 км 8/1 600 м
[Cu hum Ac lent Cs]
+30.1 +28.3 90 +51 +51 опасность
перегрева
1007.2 1005.5 +29.3
03 14.06 ЮЗ 13 12 км 8/1 600 м
[Cu hum Ac lent Cs]
+30.0 +27.9 89 +50 +50 опасность
перегрева
1008.6 1006.9
06 14.06 ЮЗ 10 10 км 8/1 600 м
[Cu hum Ac lent Cs]
+30.2 +28.1 89 +50 +51 опасность
перегрева
1006.7 1005.1
09 14.06 Ю 10 10 км 8/1 600 м
[Cu med, cong Ac und Cs]
+30.8 +28.5 88 +52 +53 опасность
перегрева
1004.8 1003.2
12 14.06 Ю 12 10 км осадки на расстоянии 9/5 600 м
[Cu Sc Ac As Cs]
+31.0 +29.0 89 +54 +54 опасность
перегрева
1005.9 1004.2 +31.6
00 15.06 ЮЗ 10 10 км 6/1 600 м
[Cu med, cong Cs]
+30.0 +28.4 91 +51 +51 опасность
перегрева
1007.7 1006.0 +29.5
03 15.06 ЮЗ 10 12 км 4/3 600 м
[Cu hum Cs]
+30.7 +28.1 86 +51 +51 опасность
перегрева
1008.4 1006.8
06 15.06 ЮЗ 10 12 км 5/3 600 м
[Cu med, cong Ac lent Cs]
+30.9 +28.3 86 +52 +52 опасность
перегрева
1007.6 1005.9
09 15.06 Ю 11 12 км 6/3 300 м
[Cb cap Cs]
+31.1 +28.8 88 +54 +54 опасность
перегрева
1004.9 1003.3
12 15.06 Ю 16 10 км 9/3 600 м
[Cu Sc Ac As Cs]
+30.6 +29.5 94 +55 +55 опасность
перегрева
1005.1 1003.5 +31.9
00 16.06 ЮЗ 3 10 км 10/0
[Ac lent Cs]
+30.2 +28.3 90 +51 +52 опасность
перегрева
1007.1 1005.4 +29.8
03 16.06 Ю 9 12 км 8/1 600 м
[Cu hum Ac trans Cs]
+31.2 +28.2 84 +52 +53 опасность
перегрева
1008.1 1006.4
06 16.06 ЮЗ 10 12 км 8/3 600 м
[Cu med, cong Ac lent Cs]
+31.0 +28.5 87 +53 +53 опасность
перегрева
1006.6 1004.9
09 16.06 ЮЗ 12 6000 м осадки на расстоянии 9/6 600 м
[Cu Sc Ac As Cs]
+30.5 +28.6 90 +52 +52 опасность
перегрева
1004.8 1003.2
12 16.06 ЮЗ 3 10 км {гроза} 10/3 600 м
[Sc Ac As Cs]
+29.0 +27.2 90 +46 +46 опасность
перегрева
1006.2 1004.5 +31.7 13
00 17.06 ЮЗ 16 10 км 10/4 600 м
[Cu Sc Ac As Cs]
+29.9 +28.5 92 +51 +51 опасность
перегрева
1006.8 1005.2 +29.0
03 17.06 ЮЗ 15 10 км 10/6 600 м
[Cu Sc Ac As Cs]
+30.0 +28.6 92 +51 +51 опасность
перегрева
1008.5 1006.9
06 17.06 ЮЗ 10 9000 м слаб. морось 10/6 600 м
[Cu Sc Ac As]
+29.3 +27.5 90 +47 +47 опасность
перегрева
1007.0 1005.3 0.0
09 17.06 ЮЗ 14 10 км {морось} 10/8 600 м
[Cu Sc Ac As]
+29.5 +27.8 91 +49 +49 опасность
перегрева
1005.9 1004.3 0.0
12 17.06 ЮЗ 12 10 км {морось} 9/6 600 м
[Cu Sc Ac As Cs]
+30.3 +27.8 87 +50 +50 опасность
перегрева
1005.8 1004.1 +30.4 0.0
00 18.06 ЮЗ 15 10 км 8/4 600 м
[Cu Sc Ac und Cs]
+29.6 +27.9 91 +49 +49 опасность
перегрева
1006.3 1004.6 +29.1

 

Местоположение метеостанции Бангкок Пилот (Таиланд): широта 13.38 долгота 100.60 высота над уровнем моря 15 м.

В архиве по умолчанию представлена погода в Бангкок Пилот за последнюю неделю. Архивные данные за месяц целиком и за предыдущие месяцы, начиная с января 2011 года, Вы можете получить, выбрав интересующий диапазон дат из раскрывающегося списка и нажав кнопку "Ввод!".


*Определитесь, кто Вы:
робот инопланетянин человек

Внимание! Время в таблицах - всемирное. Для получения местного времени необходимо прибавить поправку, которая равна 7 ч.

Смотрите также архив погоды в соседних городах и на ближайших метеорологических станциях:

Погода в Самутрудкан Агромете (Таиланд) (22 км)
Погода на Ко Сичан (Таиланд) (32 км)
Погода в Бангна Агромете (Таиланд) (32 км)
Погода в Бангкоке 2 (Таиланд) (36 км)
Погода в Аэропорту Суварнабхуми (Таиланд) (38 км)
Погода в Бангкоке (Таиланд) (39 км)
Погода в Чонбури (Таиланд) (41 км)
Погода в Ратбури (Таиланд) (41 км)
Погода в Паттайе (Таиланд) (58 км)
Погода в Дон Муанг (Таиланд) (60 км)

Пояснения к столбцам:

Ветер - указаны скорость ветра в м/с - средняя за 10 мин, порывы в срок и между сроками (в фигурных скобках) и направление, откуда дует ветер: С - северный, СВ - северо-восточный, В - восточный, ЮВ - юго-восточный, Ю - южный, ЮЗ - юго-западный, З - западный, СЗ - северо-западный.
Видимость - горизонтальная дальность видимости в метрах или километрах. При видимости от 1 до 10 км при отсутствии осадков обычно наблюдается дымка, при ухудшении видимости до 1 км и менее - туман. В сухую погоду видимость может ухудшаться дымом, пылью или мглою.
Явления - указаны атмосферные явления, наблюдавшиеся в срок или в последний час перед сроком; фигурными скобками обозначены явления, наблюдавшиеся между сроками (за 1-3 часа до срока); квадратными скобками обозначены град или гололедные отложения с указанием их диаметра в мм.
Облачность - указаны через наклонную черту общая и нижняя облачность в баллах и высота нижней границы облаков в метрах; квадратными скобками обозначены формы облаков: Ci - перистые, Cs - перисто-слоистые, Cc - перисто-кучевые, Ac - высококучевые, As - высокослоистые, Sc - слоисто-кучевые, Ns - слоисто-дождевые, Cu - кучевые, Cb - кучево-дождевые. Подробнее классификацию облаков см. в Атласе облаков (PDF).
T - Температура воздуха - температура, измеренная на высоте 2 м над землей.
Td - Температура точки росы - температура, при понижении до которой содержащийся в воздухе водяной пар достигнет насыщения.
f - Относительная влажность воздуха - влажноcть воздуха, измеренная на высоте 2 м над землей.
Te - Эффективная температура - температура, которую ощущает одетый по сезону человек в тени. Характеристика душности погоды. При расчете учитывается влияние влажности воздуха и скорости ветра на теплоощущения человека.
Tes - Эффективная температура на солнце - температура, которую ощущает человек, с поправкой на солнечный нагрев. Характеристика знойности погоды. Зависит от высоты солнца над горизонтом, облачности и скорости ветра. Ночью, в пасмурную погоду, а также при ветре 12 м/с и более поправка равна нулю.
P - Атмосферное давление - приведенное к уровню моря атмосферное давление.
Po - Атмосферное давление - измеренное на уровне метеостанции атмосферное давление.
Tmin - Минимальная температура - минимум температуры воздуха на высоте 2 м над землей.
Tmax - Максимальная температура - максимум температуры воздуха на высоте 2 м над землей.
R - Количество осадков - Количество выпавших осадков за период времени, мм. При наведении курсора мыши на число - период времени, за который выпало указанное количество осадков.
R24 - Количество осадков - Количество выпавших осадков за 24 часа, мм.
S - Снежный покров - Высота снежного покрова, см. При наведении курсора мыши на число - состояние снежного покрова и степень покрытия местности в баллах.